Simultaneous Nadir Overpasses (SNOs) Predictions

Prediction of SNOs between FY3D and METOP-C Satellite Orbit:

Table of predicted SNOs for the next 14.0 days since TLE Epoch: 6/5/2021
Index Date (FY3D) Time (FY3D) Lat,Lon (FY3D) SZA (FY3D ) Date (METOP-C) Time (METOP-C) Lat,Lon (METOP-C) SZA (METOP-C ) Distance(km) Time Diff (sec)
1 06/06/2021 20:50:21 74.03,-140.72 51.38 06/06/2021 20:51:28 73.98,-138.00 51.22 83.45 67
2 06/06/2021 21:41:04 -74.02, 26.61 128.64 06/06/2021 21:42:11 -73.96, 29.27 128.81 81.86 67
3 06/06/2021 22:31:45 73.79,-165.49 51.10 06/06/2021 22:32:55 73.71,-163.99 50.96 47.63 70
4 06/06/2021 23:22:27 -73.73, 1.96 128.96 06/06/2021 23:23:38 -73.69, 3.29 129.07 41.92 71
5 06/07/2021 00:13:08 73.49, 169.84 50.78 06/07/2021 00:14:22 73.43, 170.05 50.70 9.19 74
6 06/07/2021 01:03:51 -73.49, -22.84 129.23 06/07/2021 01:05:04 -73.47, -22.56 129.28 9.20 73
7 06/07/2021 01:54:35 73.39, 144.69 50.66 06/07/2021 01:55:44 73.41, 144.66 50.67 2.29 69
8 06/07/2021 02:45:18 -73.39, -47.99 129.35 06/07/2021 02:46:27 -73.40, -48.06 129.35 2.34 69
9 06/07/2021 03:36:04 73.40, 119.31 50.66 06/07/2021 03:37:06 73.39, 119.27 50.65 1.52 62
10 06/07/2021 04:26:47 -73.39, -73.36 129.35 06/07/2021 04:27:49 -73.37, -73.45 129.38 3.47 62
11 06/07/2021 05:17:33 73.40, 93.94 50.66 06/07/2021 05:18:27 73.42, 93.99 50.67 2.84 54
12 06/07/2021 06:08:16 -73.40, -98.74 129.35 06/07/2021 06:09:10 -73.40, -98.72 129.36 0.83 54
13 06/07/2021 06:59:02 73.40, 68.56 50.65 06/07/2021 06:59:49 73.40, 68.60 50.64 1.50 47
14 06/07/2021 07:49:45 -73.40,-124.11 129.36 06/07/2021 07:50:32 -73.38,-124.11 129.38 2.02 47
15 06/07/2021 08:40:31 73.41, 43.18 50.65 06/07/2021 08:41:11 73.38, 43.21 50.61 3.42 40
16 06/07/2021 09:31:14 -73.40,-149.49 129.36 06/07/2021 09:31:53 -73.41,-149.39 129.36 3.36 39
17 06/07/2021 10:21:59 73.36, 17.92 50.59 06/07/2021 10:22:33 73.35, 17.83 50.59 3.07 34
18 06/07/2021 11:12:43 -73.40,-174.86 129.36 06/07/2021 11:13:15 -73.39,-174.77 129.39 3.40 32
19 06/07/2021 12:03:28 73.36, -7.46 50.59 06/07/2021 12:03:54 73.38, -7.45 50.61 2.39 26
20 06/07/2021 12:54:11 -73.36, 159.87 129.42 06/07/2021 12:54:37 -73.37, 159.84 129.42 1.51 26
21 06/07/2021 13:44:57 73.36, -32.83 50.59 06/07/2021 13:45:16 73.36, -32.84 50.58 0.44 19
22 06/07/2021 14:35:40 -73.36, 134.50 129.43 06/07/2021 14:35:59 -73.34, 134.45 129.44 2.29 19
23 06/07/2021 15:26:26 73.37, -58.21 50.58 06/07/2021 15:26:38 73.34, -58.23 50.55 3.16 12
24 06/07/2021 16:17:09 -73.36, 109.12 129.43 06/07/2021 16:17:20 -73.37, 109.17 129.42 2.01 11
25 06/07/2021 17:07:55 73.37, -83.58 50.58 06/07/2021 17:07:59 73.37, -83.50 50.57 2.51 4
26 06/07/2021 17:58:38 -73.37, 83.75 129.43 06/07/2021 17:58:42 -73.35, 83.78 129.45 1.96 4
27 06/07/2021 18:49:23 73.32,-108.85 50.52 06/07/2021 18:49:21 73.34,-108.89 50.55 2.99 2
28 06/07/2021 19:40:06 -73.32, 58.48 129.49 06/07/2021 19:40:04 -73.33, 58.40 129.47 3.05 2
29 06/07/2021 20:30:52 73.32,-134.22 50.52 06/07/2021 20:30:43 73.32,-134.28 50.52 1.92 9
30 06/07/2021 21:21:35 -73.32, 33.11 129.49 06/07/2021 21:21:26 -73.31, 33.01 129.50 3.43 9
31 06/07/2021 22:12:20 73.33,-159.60 50.51 06/07/2021 22:12:03 73.35,-159.56 50.54 2.97 17
32 06/07/2021 23:03:03 -73.32, 7.73 129.50 06/07/2021 23:02:46 -73.34, 7.73 129.48 1.49 17
33 06/07/2021 23:53:49 73.33, 175.03 50.51 06/07/2021 23:53:25 73.33, 175.05 50.51 0.86 24
34 06/08/2021 00:44:32 -73.33, -17.65 129.50 06/08/2021 00:44:08 -73.31, -17.66 129.51 1.27 24
35 06/08/2021 01:35:18 73.33, 149.65 50.51 06/08/2021 01:34:47 73.31, 149.66 50.49 2.84 31
36 06/08/2021 02:26:01 -73.33, -43.02 129.50 06/08/2021 02:25:29 -73.34, -42.93 129.49 3.25 32
37 06/08/2021 03:16:46 73.28, 124.39 50.45 06/08/2021 03:16:09 73.29, 124.28 50.46 3.54 37
38 06/08/2021 04:07:30 -73.33, -68.40 129.51 06/08/2021 04:06:51 -73.32, -68.32 129.51 2.62 39
39 06/08/2021 04:58:15 73.29, 99.01 50.45 06/08/2021 04:57:30 73.31, 99.00 50.48 2.89 45
40 06/08/2021 05:48:58 -73.28, -93.66 129.56 06/08/2021 05:48:13 -73.30, -93.71 129.54 2.39 45
41 06/08/2021 06:39:44 73.29, 73.63 50.44 06/08/2021 06:38:52 73.29, 73.61 50.46 0.77 52
42 06/08/2021 07:30:27 -73.29,-119.04 129.57 06/08/2021 07:29:35 -73.28,-119.10 129.56 2.16 52
43 06/08/2021 08:21:13 73.29, 48.26 50.44 06/08/2021 08:20:14 73.27, 48.22 50.43 2.87 59
44 06/08/2021 09:11:56 -73.29,-144.41 129.57 06/08/2021 09:10:56 -73.31,-144.37 129.54 2.31 60
45 06/08/2021 10:02:42 73.30, 22.88 50.44 06/08/2021 10:01:35 73.30, 22.94 50.45 2.02 67
46 06/08/2021 10:53:25 -73.29,-169.79 129.57 06/08/2021 10:52:18 -73.28,-169.76 129.57 1.10 67
47 06/08/2021 11:44:11 73.30, -2.49 50.44 06/08/2021 11:42:57 73.28, -2.44 50.42 3.00 74
48 06/08/2021 12:34:54 -73.29, 164.84 129.58 06/08/2021 12:33:40 -73.26, 164.85 129.60 3.47 74
49 06/08/2021 13:25:35 73.05, -27.32 50.16 06/08/2021 13:24:23 73.05, -28.27 50.21 31.01 72
50 06/08/2021 14:16:18 -73.05, 140.01 129.85 06/08/2021 14:15:06 -73.04, 139.03 129.80 32.04 72
51 06/08/2021 15:06:59 72.80, -52.15 49.89 06/08/2021 15:05:50 72.78, -54.19 49.96 67.26 69
52 06/08/2021 15:57:42 -72.80, 115.18 130.12 06/08/2021 15:56:33 -72.77, 113.11 130.06 68.16 69



Historial Predications of SNOs between FY3D and METOP-C
